[[{"header":{"parameterUnit":"m.s-1","parameterCategory":2,"la1":30.2991,"la2":30.254,"lo1":-89.0895,"lo2":-89.0444,"dy":0.0017,"dx":0.0017,"nx":28,"ny":28,"refTime":"2023-10-18T03:00:00:Z","depth":"0","parameterNumber":2,"parameterNumberName":"U-component_of_CURRENTS"},"data":[0,0,0,0,0,0,0,0,0,0,0,0,0,0,0,0,0,0,0,0,0,0,0,0,0,0,0,0,0,0,0,0,0,0,0,0,0,0,0,0,0,0,0,0,0,0,0,0,0,0,0,0,0,0,0,0,0,0,-0.3105,-0.3103,0,-0.2956,-0.2954,-0.2952,-0.2841,-0.284,-0.284,-0.2839,-0.2648,-0.2644,-0.2639,0,0,0,0,0,0,0,0,0,0,0,0,0,-0.3231,-0.323,-0.3105,-0.3103,-0.3102,-0.2956,-0.2954,-0.2951,-0.2841,-0.284,-0.284,-0.2839,-0.265,-0.2644,-0.2639,0,0,0,0,0,0,0,0,0,0,0,0,0,-0.3134,-0.3229,-0.3105,-0.3034,-0.3026,-0.2957,-0.2954,-0.2951,-0.2841,-0.284,-0.284,-0.2839,-0.2652,-0.2645,-0.2638,-0.2609,0,0,-0.2617,-0.2613,0,0,0,0,0,0,0,0,-0.314,-0.3128,-0.3045,-0.3038,-0.303,-0.2921,-0.2929,-0.2836,-0.2841,-0.2905,-0.2839,-0.2839,-0.274,-0.2726,-0.2692,-0.26,-0.2591,-0.2616,-0.2612,-0.2609,-0.2607,0,0,0,0,0,0,0,-0.3146,-0.3134,-0.304,-0.3044,-0.3035,-0.2989,-0.2974,-0.291,-0.2823,-0.29,-0.2893,-0.2885,-0.2734,-0.2699,-0.2686,-0.2589,-0.2616,-0.261,-0.2606,-0.2603,-0.2477,-0.2478,0,0,0,0,0,0,-0.318,-0.3141,-0.3045,-0.3036,-0.3091,-0.2988,-0.2971,-0.2952,-0.2824,-0.2806,-0.2886,-0.2881,-0.2711,-0.2695,-0.2679,-0.265,-0.2609,-0.2602,-0.2598,-0.2476,-0.2477,-0.2478,0,0,0,0,0,0,-0.3183,-0.3172,-0.3051,-0.309,-0.3072,-0.2987,-0.2967,-0.295,-0.2908,-0.2816,-0.2795,-0.2863,-0.271,-0.2689,-0.2631,-0.2641,-0.2599,-0.2593,-0.2475,-0.2476,-0.2478,-0.2583,0,0,0,0,0,0,-0.3187,-0.3174,-0.3163,-0.3092,-0.3072,-0.3029,-0.2967,-0.2948,-0.2908,-0.2899,-0.2789,-0.2771,-0.2708,-0.2642,-0.2624,-0.2631,-0.2587,-0.2474,-0.2476,-0.2477,-0.2578,-0.2587,-0.2595,0,0,0,0,0,-0.3192,-0.3183,-0.3163,-0.3152,-0.3062,-0.303,-0.3015,-0.2948,-0.2908,-0.2904,-0.2827,-0.2774,-0.2639,-0.2637,-0.2615,-0.262,-0.2473,-0.2475,-0.2477,-0.2574,-0.2586,-0.2595,0,0,0,0,0,0,-0.3225,-0.3169,-0.3146,-0.3118,-0.309,-0.3014,-0.2991,-0.2954,-0.2886,-0.2866,-0.2776,-0.2753,-0.2716,-0.2653,-0.2652,-0.2591,-0.2551,-0.2549,-0.2632,-0.2642,-0.265,-0.263,-0.2581,0,0,0,0,0,-0.3234,-0.321,-0.3165,-0.3144,-0.3129,-0.3061,-0.3034,-0.2999,-0.2937,-0.2904,-0.2835,-0.276,-0.2707,-0.2663,-0.2614,-0.2565,-0.251,-0.2558,-0.2566,-0.2574,-0.2545,-0.2499,-0.2501,-0.2484,-0.2484,-0.2484,0,0,-0.3238,-0.3207,-0.319,-0.315,-0.3108,-0.3085,-0.3041,-0.301,-0.2983,-0.2895,-0.2833,-0.2794,-0.2707,-0.2667,-0.2643,-0.261,-0.2556,-0.2576,-0.2583,-0.2549,-0.2501,-0.2503,-0.2504,-0.2486,-0.2485,-0.2485,0,0,-0.325,-0.3211,-0.3202,-0.3184,-0.3147,-0.3103,-0.3103,-0.3043,-0.3007,-0.2962,-0.2901,-0.2865,-0.277,-0.2717,-0.2674,-0.2694,-0.2619,-0.2687,-0.2689,-0.2648,-0.2648,-0.2648,-0.2607,-0.2601,-0.2673,-0.2673,-0.2673,0,-0.3257,-0.3228,-0.3199,-0.3193,-0.3162,-0.3116,-0.3097,-0.3063,-0.2996,-0.2972,-0.2958,-0.2843,-0.2788,-0.2721,-0.2731,-0.2712,-0.2672,-0.266,-0.2659,-0.2657,-0.2655,-0.2612,-0.2605,-0.2679,-0.2678,-0.2677,-0.2677,0,-0.3266,-0.324,-0.3233,-0.3196,-0.3176,-0.3149,-0.311,-0.3092,-0.3048,-0.3013,-0.2966,-0.29,-0.2821,-0.2822,-0.2771,-0.2732,-0.2706,-0.2694,-0.2634,-0.2663,-0.2616,-0.2607,-0.2686,-0.2684,-0.2683,-0.2681,0,0,-0.3256,-0.3239,-0.3232,-0.3206,-0.3165,-0.314,-0.312,-0.3075,-0.3045,-0.3014,-0.2963,-0.2908,-0.2879,-0.2827,-0.2781,-0.274,-0.2715,-0.2704,-0.27,-0.2664,-0.2616,-0.2336,-0.2299,-0.2703,-0.2702,-0.2701,-0.2599,0,-0.3251,-0.3238,-0.323,-0.3187,-0.3154,-0.3127,-0.3104,-0.3075,-0.3039,-0.2994,-0.2947,-0.2887,-0.2876,-0.2835,-0.2801,-0.2733,-0.269,-0.2742,-0.2589,-0.2583,-0.2332,-0.2277,-0.1992,-0.1852,-0.259,-0.2588,-0.2587,0,-0.3234,-0.322,-0.3195,-0.3148,-0.3133,-0.3114,-0.3052,-0.3033,-0.2994,-0.2973,-0.293,-0.2885,-0.2817,-0.2805,-0.27,-0.2732,-0.267,-0.2626,-0.2622,-0.2301,-0.2282,-0.1936,-0.1807,-0.169,-0.2572,-0.2573,-0.2574,0,-0.3192,-0.3173,-0.3143,-0.313,-0.3097,-0.3079,-0.305,-0.3022,-0.2984,-0.2946,-0.2906,-0.2854,-0.2776,-0.2727,-0.2612,-0.2661,-0.2478,-0.2542,-0.2237,-0.2219,-0.1906,-0.1859,-0.1629,-0.2454,-0.2454,-0.2454,-0.2455,0,-0.3144,-0.3106,-0.3123,-0.3098,-0.3043,-0.3047,-0.2987,-0.2974,-0.2937,-0.2861,-0.2874,-0.2772,-0.2746,-0.2631,-0.2587,-0.2329,-0.2453,-0.2188,-0.2145,-0.1934,-0.1894,-0.1718,-0.1827,-0.2451,-0.2451,-0.2452,-0.2453,0,-0.3054,-0.3084,-0.3037,-0.3028,-0.3014,-0.297,-0.2917,-0.2874,-0.2875,-0.2771,-0.2746,-0.2683,-0.2501,-0.2435,-0.2309,-0.222,-0.1989,-0.1953,-0.1691,-0.1613,-0.1196,-0.1324,-0.127,-0.1288,-0.161,-0.1602,-0.1595,0,-0.2973,-0.2957,-0.2966,-0.2935,-0.2915,-0.2865,-0.2816,-0.282,-0.2763,-0.2675,-0.2595,-0.2423,-0.2182,-0.189,-0.1698,-0.1493,-0.1648,-0.1167,-0.1186,-0.1059,-0.1176,-0.1448,-0.1494,-0.086,-0.0848,-0.0838,-0.083,0,-0.2788,-0.2833,-0.2818,-0.2777,-0.2732,-0.2677,-0.261,-0.2558,-0.2534,-0.2441,-0.2224,-0.2025,-0.1659,-0.1197,-0.0924,-0.0858,-0.1103,-0.0948,-0.0888,-0.0583,-0.0798,-0.0828,-0.1084,-0.0741,-0.075,-0.0756,-0.0761,-0.0765,-0.2613,-0.2595,-0.2602,-0.254,-0.2515,-0.2425,-0.2292,-0.2234,-0.2087,-0.1815,-0.1799,-0.1349,-0.0807,-0.0305,-0.0269,0.0028,-0.0407,0.01,-0.0079,-0.0376,-0.0326,-0.0348,0.0098,0.0094,0.009,0.0087,0.0085,0,-0.2287,-0.2339,-0.2327,-0.2264,-0.2157,-0.2211,-0.2081,-0.1897,-0.1625,-0.1376,-0.1074,-0.0342,0.026,0.0537,0.098,0.0977,0.063,0.0845,0.0519,0.0413,0.0438,0.0559,0.1219,0.1219,0.1218,0.1218,0.1218,0.1218,-0.2106,-0.2025,-0.207,-0.1862,-0.1836,-0.1581,-0.1451,-0.1243,-0.0999,-0.0439,0.0007,0.0281,0.0719,0.1381,0.1667,0.1546,0.114,0.1077,0.0774,0.0867,0.0781,0.0699,0.0802,0.1501,0.15,0.0836,0.0831,0.0827]},{"header":{"parameterUnit":"m.s-1","parameterCategory":2,"la1":30.2991,"la2":30.254,"lo1":-89.0895,"lo2":-89.0444,"dy":0.0017,"dx":0.0017,"nx":28,"ny":28,"refTime":"2023-10-18T03:00:00:Z","depth":"0","parameterNumber":3,"parameterNumberName":"V-component_of_CURRENTS"},"data":[0,0,0,0,0,0,0,0,0,0,0,0,0,0,0,0,0,0,0,0,0,0,0,0,0,0,0,0,0,0,0,0,0,0,0,0,0,0,0,0,0,0,0,0,0,0,0,0,0,0,0,0,0,0,0,0,0,0,-0.0945,-0.0942,0,-0.0743,-0.0741,-0.0739,-0.0595,-0.0593,-0.0591,-0.059,-0.0454,-0.0452,-0.045,0,0,0,0,0,0,0,0,0,0,0,0,0,-0.11,-0.1099,-0.0945,-0.0942,-0.0939,-0.0743,-0.0741,-0.0739,-0.0595,-0.0593,-0.0591,-0.0589,-0.0455,-0.0453,-0.045,0,0,0,0,0,0,0,0,0,0,0,0,0,-0.0984,-0.1099,-0.0945,-0.084,-0.0828,-0.0744,-0.0741,-0.0738,-0.0595,-0.0593,-0.059,-0.0588,-0.0456,-0.0453,-0.045,-0.0479,0,0,-0.044,-0.0439,0,0,0,0,0,0,0,0,-0.0991,-0.0979,-0.0858,-0.0847,-0.0834,-0.0687,-0.0745,-0.0653,-0.0596,-0.0689,-0.059,-0.0587,-0.0537,-0.0527,-0.05,-0.0473,-0.0467,-0.044,-0.0438,-0.0437,-0.0436,0,0,0,0,0,0,0,-0.1,-0.0986,-0.087,-0.0855,-0.084,-0.0766,-0.0749,-0.0727,-0.0634,-0.0681,-0.0668,-0.0639,-0.0531,-0.0504,-0.0496,-0.0465,-0.044,-0.0437,-0.0435,-0.0434,-0.0468,-0.047,0,0,0,0,0,0,-0.1023,-0.0995,-0.0876,-0.0863,-0.0903,-0.0766,-0.0746,-0.0741,-0.0632,-0.0612,-0.0641,-0.0633,-0.051,-0.05,-0.0491,-0.0521,-0.0437,-0.0434,-0.0432,-0.0465,-0.0468,-0.0471,0,0,0,0,0,0,-0.1028,-0.1016,-0.0884,-0.0919,-0.0896,-0.0766,-0.0761,-0.0738,-0.0699,-0.0601,-0.0582,-0.0624,-0.0508,-0.0496,-0.0484,-0.0515,-0.0432,-0.0429,-0.0462,-0.0466,-0.047,-0.0581,0,0,0,0,0,0,-0.1034,-0.1019,-0.1022,-0.0922,-0.0895,-0.0843,-0.0762,-0.0736,-0.0683,-0.067,-0.0581,-0.0565,-0.0505,-0.0489,-0.0481,-0.0509,-0.0427,-0.0458,-0.0464,-0.0469,-0.0573,-0.0588,-0.0601,0,0,0,0,0,-0.104,-0.1055,-0.1024,-0.1008,-0.0905,-0.0844,-0.0825,-0.0725,-0.0685,-0.0681,-0.0629,-0.0567,-0.0516,-0.0489,-0.0478,-0.0506,-0.0456,-0.0462,-0.0468,-0.0567,-0.0585,-0.06,0,0,0,0,0,0,-0.1113,-0.1039,-0.1002,-0.099,-0.0926,-0.0817,-0.0793,-0.0739,-0.0693,-0.0683,-0.0598,-0.0581,-0.0579,-0.0544,-0.0516,-0.0537,-0.0479,-0.0483,-0.0558,-0.0574,-0.0588,-0.0609,-0.0424,0,0,0,0,0,-0.1137,-0.1131,-0.1045,-0.1033,-0.1008,-0.0909,-0.087,-0.0813,-0.0752,-0.0726,-0.0668,-0.0626,-0.0602,-0.0588,-0.0557,-0.0574,-0.054,-0.059,-0.0604,-0.0615,-0.063,-0.0646,-0.0661,-0.0492,-0.0492,-0.0492,0,0,-0.1152,-0.1115,-0.1104,-0.1048,-0.0988,-0.0971,-0.0881,-0.0836,-0.0828,-0.0726,-0.0712,-0.0667,-0.0618,-0.0624,-0.0623,-0.0595,-0.0639,-0.0623,-0.0633,-0.0641,-0.0654,-0.067,-0.0684,-0.0496,-0.0495,-0.0495,0,0,-0.1195,-0.1161,-0.1172,-0.1136,-0.1066,-0.1014,-0.1011,-0.0924,-0.0892,-0.088,-0.081,-0.0795,-0.0749,-0.0724,-0.0705,-0.0788,-0.0708,-0.0776,-0.0861,-0.0876,-0.089,-0.0902,-0.0846,-0.0852,-0.0787,-0.0787,-0.0787,0,-0.1214,-0.1221,-0.1163,-0.1169,-0.1141,-0.1047,-0.1054,-0.102,-0.0944,-0.0949,-0.0894,-0.0857,-0.0801,-0.0826,-0.0839,-0.0816,-0.0788,-0.0795,-0.0893,-0.0904,-0.0914,-0.0854,-0.086,-0.0793,-0.0792,-0.0792,-0.0791,0,-0.1265,-0.1267,-0.1271,-0.1253,-0.123,-0.1216,-0.1163,-0.1157,-0.1111,-0.1077,-0.1085,-0.1015,-0.0992,-0.0977,-0.0921,-0.0975,-0.0916,-0.0902,-0.0847,-0.0937,-0.0869,-0.0872,-0.0802,-0.0799,-0.0798,-0.0796,0,0,-0.1301,-0.1306,-0.1306,-0.1317,-0.1273,-0.1261,-0.128,-0.1272,-0.1295,-0.1244,-0.1265,-0.1228,-0.1182,-0.1161,-0.1097,-0.1104,-0.112,-0.1036,-0.1034,-0.0971,-0.1105,-0.0907,-0.089,-0.1125,-0.1127,-0.1129,-0.1015,0,-0.1346,-0.1395,-0.1381,-0.1415,-0.1425,-0.1383,-0.141,-0.1404,-0.138,-0.1383,-0.134,-0.1327,-0.1255,-0.1232,-0.1236,-0.1143,-0.114,-0.1149,-0.1036,-0.1031,-0.0837,-0.0893,-0.0756,-0.0631,-0.1018,-0.1018,-0.1018,0,-0.1391,-0.1418,-0.147,-0.1505,-0.1508,-0.1525,-0.1555,-0.1566,-0.157,-0.1553,-0.1547,-0.1484,-0.1463,-0.1388,-0.1316,-0.1322,-0.1231,-0.1163,-0.1158,-0.094,-0.084,-0.0611,-0.0621,-0.0619,-0.1022,-0.1022,-0.1022,0,-0.1433,-0.1478,-0.1528,-0.1532,-0.1559,-0.1594,-0.1609,-0.1627,-0.1645,-0.1652,-0.1642,-0.1625,-0.1561,-0.1511,-0.1312,-0.1337,-0.1196,-0.1217,-0.0958,-0.094,-0.0784,-0.0748,-0.0772,-0.1196,-0.1196,-0.1196,-0.1196,0,-0.1473,-0.1506,-0.1559,-0.1579,-0.165,-0.1654,-0.1722,-0.1737,-0.1752,-0.1738,-0.1723,-0.1653,-0.1591,-0.1467,-0.1351,-0.1112,-0.1223,-0.0971,-0.0912,-0.0812,-0.0781,-0.0737,-0.0784,-0.1192,-0.1193,-0.1194,-0.1194,0,-0.1481,-0.1518,-0.1575,-0.1639,-0.1665,-0.1711,-0.1768,-0.1803,-0.182,-0.1788,-0.178,-0.1683,-0.1486,-0.1367,-0.1211,-0.1105,-0.0861,-0.0829,-0.0662,-0.0585,-0.0374,-0.0431,-0.0342,-0.0233,-0.0584,-0.0578,-0.0574,0,-0.1468,-0.1506,-0.161,-0.1647,-0.1671,-0.1742,-0.1778,-0.1825,-0.1822,-0.1742,-0.169,-0.1524,-0.1268,-0.0964,-0.0786,-0.0557,-0.0585,-0.0339,-0.0384,-0.0338,-0.0362,-0.04,-0.032,-0.0213,-0.0205,-0.02,-0.0195,0,-0.1423,-0.148,-0.1536,-0.1626,-0.168,-0.174,-0.1771,-0.1765,-0.1747,-0.1645,-0.139,-0.1179,-0.087,-0.0505,-0.0261,-0.0147,-0.0281,-0.0209,-0.0247,-0.0139,-0.0103,0.0026,-0.0275,-0.0143,-0.0148,-0.0152,-0.0155,-0.0157,-0.135,-0.1399,-0.148,-0.1549,-0.163,-0.1638,-0.157,-0.1537,-0.1409,-0.1086,-0.1005,-0.0494,-0.0254,0.0153,0.0185,0.029,0.0176,0.03,0.0214,0.0163,0.0293,0.0161,0.0411,0.0409,0.0408,0.0406,0.0405,0,-0.1153,-0.1259,-0.137,-0.1424,-0.1435,-0.1517,-0.1466,-0.1295,-0.0974,-0.0672,-0.0284,0.0397,0.0604,0.0676,0.0737,0.0709,0.0654,0.0643,0.0541,0.0595,0.0411,0.0453,0.0829,0.0829,0.0829,0.0829,0.0829,0.0828,-0.1043,-0.1076,-0.1167,-0.1153,-0.1194,-0.1055,-0.0944,-0.0707,-0.0435,0.026,0.0834,0.122,0.1368,0.0983,0.0849,0.0828,0.0814,0.0797,0.0759,0.0518,0.0475,0.0435,0.0462,0.0832,0.0832,0.1031,0.1031,0.1032]}],[{"header":{"parameterUnit":"m.s-1","parameterCategory":2,"la1":30.2991,"la2":30.254,"lo1":-89.0895,"lo2":-89.0444,"dy":0.0017,"dx":0.0017,"nx":28,"ny":28,"refTime":"2023-10-18T03:00:00:Z","depth":"2","parameterNumber":2,"parameterNumberName":"U-component_of_CURRENTS"},"data":[0,0,0,0,0,0,0,0,0,0,0,0,0,0,0,0,0,0,0,0,0,0,0,0,0,0,0,0,0,0,0,0,0,0,0,0,0,0,0,0,0,0,0,0,0,0,0,0,0,0,0,0,0,0,0,0,0,0,-0.1795,-0.1795,0,-0.1758,-0.1757,-0.1757,-0.1735,-0.1735,-0.1735,-0.1735,-0.1813,-0.1815,-0.1818,0,0,0,0,0,0,0,0,0,0,0,0,0,-0.1726,-0.1728,-0.1795,-0.1795,-0.1794,-0.1758,-0.1757,-0.1757,-0.1735,-0.1735,-0.1735,-0.1735,-0.1812,-0.1815,-0.1818,0,0,0,0,0,0,0,0,0,0,0,0,0,-0.173,-0.1729,-0.1796,-0.1779,-0.1777,-0.1758,-0.1757,-0.1757,-0.1735,-0.1735,-0.1735,-0.1735,-0.1812,-0.1815,-0.1818,-0.1843,0,0,-0.1828,-0.183,0,0,0,0,0,0,0,0,-0.173,-0.1733,-0.1782,-0.178,-0.1777,-0.175,-0.1761,-0.1791,-0.1735,-0.1752,-0.1735,-0.1735,-0.1803,-0.1807,-0.18,-0.1847,-0.185,-0.1829,-0.1831,-0.1832,-0.1833,0,0,0,0,0,0,0,-0.173,-0.1734,-0.1781,-0.1781,-0.1778,-0.173,-0.1732,-0.1766,-0.1782,-0.1751,-0.1749,-0.1743,-0.1802,-0.1796,-0.1802,-0.1852,-0.1829,-0.1831,-0.1834,-0.1835,-0.1817,-0.1815,0,0,0,0,0,0,-0.174,-0.1734,-0.1783,-0.178,-0.1752,-0.1732,-0.1734,-0.176,-0.1779,-0.178,-0.1743,-0.1742,-0.1791,-0.1798,-0.1804,-0.1788,-0.1832,-0.1835,-0.1837,-0.182,-0.1817,-0.1814,0,0,0,0,0,0,-0.1739,-0.1746,-0.1784,-0.1753,-0.1755,-0.1735,-0.1763,-0.1759,-0.1754,-0.1772,-0.1776,-0.1742,-0.1791,-0.18,-0.1797,-0.1793,-0.1837,-0.184,-0.1823,-0.1819,-0.1815,-0.1786,0,0,0,0,0,0,-0.1738,-0.1747,-0.1763,-0.1755,-0.1757,-0.1757,-0.1763,-0.1759,-0.175,-0.1748,-0.1772,-0.1779,-0.1791,-0.1791,-0.18,-0.1798,-0.1842,-0.1826,-0.1821,-0.1817,-0.1791,-0.1782,-0.1775,0,0,0,0,0,-0.1736,-0.1743,-0.1765,-0.177,-0.1784,-0.1755,-0.1751,-0.1735,-0.175,-0.1734,-0.1736,-0.1778,-0.1768,-0.1792,-0.1803,-0.1803,-0.1828,-0.1822,-0.1817,-0.1794,-0.1784,-0.1775,0,0,0,0,0,0,-0.1738,-0.1741,-0.1765,-0.1782,-0.1769,-0.1751,-0.174,-0.1739,-0.1729,-0.174,-0.1759,-0.1764,-0.1751,-0.1773,-0.1799,-0.1774,-0.1801,-0.1797,-0.1779,-0.177,-0.1763,-0.1781,-0.1845,0,0,0,0,0,-0.1748,-0.1727,-0.1751,-0.1749,-0.1766,-0.1762,-0.1752,-0.1746,-0.1737,-0.1733,-0.1737,-0.1742,-0.1736,-0.1751,-0.1743,-0.1755,-0.1758,-0.1751,-0.1743,-0.1737,-0.1752,-0.1742,-0.1737,-0.1796,-0.1796,-0.1796,0,0,-0.1741,-0.1737,-0.1729,-0.1741,-0.1747,-0.1748,-0.1755,-0.1743,-0.1726,-0.1748,-0.1726,-0.1718,-0.1725,-0.1708,-0.1708,-0.1734,-0.1709,-0.173,-0.1726,-0.1745,-0.1736,-0.1731,-0.1727,-0.1792,-0.1793,-0.1793,0,0,-0.1694,-0.1737,-0.1713,-0.1714,-0.1717,-0.1722,-0.1724,-0.172,-0.1713,-0.1692,-0.1688,-0.1672,-0.1675,-0.1666,-0.167,-0.1621,-0.1657,-0.1618,-0.1621,-0.161,-0.1607,-0.1604,-0.1559,-0.1553,-0.163,-0.163,-0.163,0,-0.1683,-0.1685,-0.1696,-0.1689,-0.1692,-0.1718,-0.1719,-0.1711,-0.1685,-0.1686,-0.1678,-0.1652,-0.1654,-0.1647,-0.1613,-0.1611,-0.1601,-0.1665,-0.1605,-0.1603,-0.16,-0.1556,-0.1549,-0.1628,-0.1629,-0.1629,-0.1629,0,-0.1647,-0.1645,-0.1637,-0.1641,-0.1644,-0.164,-0.1664,-0.1658,-0.1662,-0.1653,-0.1633,-0.1614,-0.1606,-0.1591,-0.1594,-0.1576,-0.1568,-0.1588,-0.1642,-0.1594,-0.1547,-0.1541,-0.1625,-0.1626,-0.1627,-0.1627,0,0,-0.1617,-0.161,-0.161,-0.1608,-0.163,-0.1626,-0.163,-0.164,-0.1649,-0.1619,-0.1614,-0.158,-0.1583,-0.1583,-0.158,-0.1574,-0.1522,-0.1579,-0.1579,-0.1556,-0.1475,-0.1384,-0.1368,-0.1542,-0.1542,-0.1542,-0.1436,0,-0.1588,-0.1558,-0.1572,-0.155,-0.1554,-0.1593,-0.159,-0.1599,-0.1609,-0.1601,-0.1602,-0.1584,-0.1579,-0.1575,-0.1566,-0.1535,-0.1511,-0.1547,-0.1507,-0.1505,-0.1449,-0.136,-0.1286,-0.1179,-0.143,-0.1429,-0.1428,0,-0.155,-0.1539,-0.1519,-0.1515,-0.1533,-0.1525,-0.1564,-0.1561,-0.158,-0.1587,-0.1592,-0.1592,-0.1569,-0.1572,-0.1515,-0.1542,-0.1505,-0.1481,-0.1477,-0.1409,-0.1403,-0.1273,-0.1159,-0.1418,-0.1419,-0.1419,-0.142,0,-0.1497,-0.1492,-0.1472,-0.1474,-0.1491,-0.1497,-0.1517,-0.1548,-0.1557,-0.1576,-0.1576,-0.1574,-0.1548,-0.1526,-0.1471,-0.1496,-0.1402,-0.1431,-0.1309,-0.1301,-0.1238,-0.1225,-0.1387,-0.1388,-0.1388,-0.1388,-0.1388,0,-0.1434,-0.1415,-0.1445,-0.1431,-0.1437,-0.1463,-0.1473,-0.1499,-0.1528,-0.1515,-0.1556,-0.1535,-0.1539,-0.1492,-0.1459,-0.1342,-0.1386,-0.1285,-0.1265,-0.1216,-0.1204,-0.143,-0.1436,-0.1384,-0.1385,-0.1386,-0.1386,0,-0.1342,-0.1357,-0.1337,-0.1376,-0.1391,-0.1393,-0.1441,-0.1442,-0.1481,-0.1465,-0.1465,-0.1486,-0.1412,-0.1393,-0.1333,-0.1293,-0.122,-0.1172,-0.1092,-0.1064,-0.1128,-0.1134,-0.102,-0.1016,-0.1012,-0.1009,-0.1007,0,-0.128,-0.1259,-0.1298,-0.1298,-0.1309,-0.1331,-0.1338,-0.1401,-0.1396,-0.1413,-0.138,-0.1344,-0.1278,-0.116,-0.1096,-0.0999,-0.1086,-0.0885,-0.0918,-0.1097,-0.1089,-0.1101,-0.1111,-0.0806,-0.0803,-0.0799,-0.0797,0,-0.1182,-0.1201,-0.1202,-0.1209,-0.1214,-0.1228,-0.1238,-0.1236,-0.1275,-0.1264,-0.1215,-0.1176,-0.1069,-0.0943,-0.084,-0.0787,-0.0899,-0.0813,-0.1018,-0.0912,-0.0887,-0.0883,-0.0902,-0.0768,-0.0771,-0.0773,-0.0775,-0.0776,-0.1122,-0.1103,-0.1109,-0.1107,-0.1115,-0.1092,-0.1057,-0.1061,-0.1037,-0.0968,-0.1016,-0.0908,-0.0928,-0.07,-0.0628,-0.0565,-0.0647,-0.0639,-0.0653,-0.067,-0.0665,-0.0636,-0.0466,-0.0467,-0.0468,-0.0469,-0.047,0,-0.1061,-0.1035,-0.1007,-0.0988,-0.0944,-0.0989,-0.0958,-0.0898,-0.081,-0.0749,-0.0687,-0.0615,-0.0527,-0.0519,-0.0374,-0.0345,-0.0379,-0.0328,-0.0402,-0.043,-0.0455,-0.0444,-0.0184,-0.0183,-0.0182,-0.0181,0,0,-0.1027,-0.0966,-0.0931,-0.0822,-0.0799,-0.0709,-0.0665,-0.0591,-0.052,-0.0402,-0.0336,-0.0392,-0.0449,-0.0312,-0.0294,-0.0195,-0.0292,-0.016,-0.039,-0.0499,-0.0521,-0.0634,-0.0647,0,0,0,0,0]},{"header":{"parameterUnit":"m.s-1","parameterCategory":2,"la1":30.2991,"la2":30.254,"lo1":-89.0895,"lo2":-89.0444,"dy":0.0017,"dx":0.0017,"nx":28,"ny":28,"refTime":"2023-10-18T03:00:00:Z","depth":"2","parameterNumber":3,"parameterNumberName":"V-component_of_CURRENTS"},"data":[0,0,0,0,0,0,0,0,0,0,0,0,0,0,0,0,0,0,0,0,0,0,0,0,0,0,0,0,0,0,0,0,0,0,0,0,0,0,0,0,0,0,0,0,0,0,0,0,0,0,0,0,0,0,0,0,0,0,-0.0577,-0.0576,0,-0.053,-0.053,-0.0529,-0.0508,-0.0508,-0.0507,-0.0507,-0.0335,-0.0331,-0.0326,0,0,0,0,0,0,0,0,0,0,0,0,0,-0.0607,-0.0607,-0.0577,-0.0576,-0.0575,-0.053,-0.053,-0.0529,-0.0508,-0.0508,-0.0507,-0.0507,-0.0337,-0.0331,-0.0326,0,0,0,0,0,0,0,0,0,0,0,0,0,-0.0582,-0.0607,-0.0577,-0.0558,-0.0556,-0.053,-0.053,-0.0529,-0.0508,-0.0508,-0.0507,-0.0507,-0.0338,-0.0332,-0.0325,-0.0286,0,0,-0.0304,-0.0302,0,0,0,0,0,0,0,0,-0.0584,-0.0581,-0.0562,-0.0559,-0.0557,-0.0523,-0.0477,-0.0441,-0.0508,-0.0527,-0.0507,-0.0507,-0.0385,-0.0375,-0.037,-0.0278,-0.0271,-0.0304,-0.03,-0.0297,-0.0295,0,0,0,0,0,0,0,-0.0586,-0.0583,-0.056,-0.0561,-0.0558,-0.0538,-0.0535,-0.0471,-0.0457,-0.0526,-0.0524,-0.0516,-0.0384,-0.0377,-0.0366,-0.0268,-0.0304,-0.0298,-0.0294,-0.0291,-0.0136,-0.0136,0,0,0,0,0,0,-0.0591,-0.0585,-0.0561,-0.0558,-0.0569,-0.0538,-0.0534,-0.0535,-0.046,-0.0449,-0.0517,-0.0515,-0.0389,-0.0374,-0.0359,-0.0287,-0.0297,-0.0291,-0.0287,-0.0136,-0.0136,-0.0136,0,0,0,0,0,0,-0.0592,-0.0589,-0.0563,-0.0569,-0.0564,-0.0538,-0.0539,-0.0534,-0.0524,-0.0454,-0.0441,-0.051,-0.0388,-0.0369,-0.0304,-0.028,-0.0288,-0.0281,-0.0136,-0.0136,-0.0136,-0.0154,0,0,0,0,0,0,-0.0593,-0.059,-0.0595,-0.0569,-0.0564,-0.0542,-0.0539,-0.0534,-0.0519,-0.0517,-0.0443,-0.0428,-0.0386,-0.0315,-0.0298,-0.0271,-0.0276,-0.0136,-0.0136,-0.0136,-0.0154,-0.0155,-0.0156,0,0,0,0,0,-0.0594,-0.0603,-0.0596,-0.0593,-0.0571,-0.0542,-0.0537,-0.0518,-0.0519,-0.051,-0.0468,-0.043,-0.0302,-0.0309,-0.0289,-0.026,-0.0136,-0.0136,-0.0136,-0.0153,-0.0154,-0.0156,0,0,0,0,0,0,-0.0618,-0.0601,-0.0593,-0.0596,-0.0567,-0.0537,-0.0531,-0.0518,-0.0482,-0.0478,-0.042,-0.0401,-0.0341,-0.0302,-0.0311,-0.0219,-0.0216,-0.0212,-0.0236,-0.0236,-0.0237,-0.0243,-0.0271,0,0,0,0,0,-0.0626,-0.0628,-0.0599,-0.0598,-0.0587,-0.0559,-0.0547,-0.0531,-0.0495,-0.048,-0.043,-0.0377,-0.0326,-0.0284,-0.0237,-0.0173,-0.0143,-0.0146,-0.0147,-0.0148,-0.0141,-0.0088,-0.0083,-0.0135,-0.0135,-0.0135,0,0,-0.0632,-0.0624,-0.0624,-0.0603,-0.0583,-0.0559,-0.0552,-0.053,-0.0506,-0.0462,-0.0415,-0.0377,-0.0314,-0.0256,-0.0224,-0.0214,-0.012,-0.0147,-0.0148,-0.0141,-0.0087,-0.0082,-0.0077,-0.0135,-0.0135,-0.0135,0,0,-0.0639,-0.064,-0.0638,-0.0614,-0.0584,-0.0564,-0.0557,-0.0521,-0.0502,-0.0451,-0.0422,-0.0372,-0.0288,-0.0241,-0.0205,-0.018,-0.0135,-0.0168,-0.0157,-0.0106,-0.0101,-0.0096,-0.0061,-0.0053,-0.0157,-0.0157,-0.0157,0,-0.0644,-0.0641,-0.063,-0.0613,-0.0594,-0.0565,-0.0545,-0.0517,-0.0464,-0.0442,-0.0437,-0.0333,-0.0279,-0.0205,-0.0201,-0.0177,-0.0152,-0.0156,-0.0106,-0.0101,-0.0095,-0.0061,-0.0051,-0.0158,-0.0158,-0.0158,-0.0158,0,-0.0642,-0.0634,-0.0628,-0.06,-0.0579,-0.0557,-0.0516,-0.049,-0.0467,-0.0435,-0.0371,-0.0311,-0.0249,-0.0225,-0.0197,-0.0133,-0.013,-0.0122,-0.0102,-0.0091,-0.0056,-0.0045,-0.0159,-0.0159,-0.0159,-0.0158,0,0,-0.0661,-0.0633,-0.063,-0.0616,-0.0571,-0.0554,-0.0513,-0.0467,-0.0445,-0.0389,-0.035,-0.0266,-0.0246,-0.0206,-0.0167,-0.0115,-0.0057,-0.0103,-0.0099,-0.0067,0.0045,0.0051,0.0063,-0.0042,-0.004,-0.0038,0.0051,0,-0.0656,-0.0637,-0.0621,-0.0591,-0.0573,-0.0537,-0.0506,-0.0461,-0.0421,-0.0376,-0.0309,-0.0259,-0.0234,-0.0208,-0.0151,-0.0081,-0.003,-0.0083,0.0028,0.0032,0.0038,0.0075,0.0042,0.012,0.0061,0.0063,0.0064,0,-0.0655,-0.0643,-0.0621,-0.0592,-0.0583,-0.0562,-0.0519,-0.0486,-0.0415,-0.0385,-0.0322,-0.0274,-0.0184,-0.0177,-0.0041,-0.0078,-0.0019,0.0033,0.0038,0.006,0.0058,0.0101,0.0141,0.0081,0.008,0.0078,0.0077,0,-0.0676,-0.0645,-0.0634,-0.0618,-0.0577,-0.0567,-0.0548,-0.0491,-0.0466,-0.0392,-0.0362,-0.0262,-0.0204,-0.0115,-0.0005,-0.0021,0.0135,0.0128,0.019,0.019,0.0193,0.0191,0.0221,0.0221,0.022,0.022,0.022,0,-0.0677,-0.0666,-0.0647,-0.0637,-0.0632,-0.0597,-0.0582,-0.0548,-0.0494,-0.0459,-0.0375,-0.0315,-0.0184,-0.008,0.0002,0.0133,0.0145,0.0205,0.0223,0.0184,0.018,0.017,0.0163,0.0224,0.0223,0.0222,0.0222,0,-0.0692,-0.0677,-0.0667,-0.0642,-0.0641,-0.064,-0.062,-0.0606,-0.055,-0.0499,-0.0475,-0.0338,-0.0183,-0.0056,0.0106,0.0151,0.0266,0.0304,0.0242,0.0252,0.028,0.0271,0.0384,0.0385,0.0386,0.0387,0.0388,0,-0.0693,-0.069,-0.0685,-0.0692,-0.0684,-0.0683,-0.0683,-0.0643,-0.0621,-0.0508,-0.048,-0.0314,-0.0182,0.0056,0.0189,0.0344,0.0334,0.0359,0.033,0.0295,0.0302,0.0291,0.028,0.0323,0.0323,0.0323,0.0324,0,-0.0694,-0.07,-0.0698,-0.072,-0.073,-0.074,-0.0732,-0.0722,-0.0661,-0.0608,-0.0482,-0.0362,-0.0095,0.0092,0.0281,0.035,0.0331,0.0366,0.0373,0.028,0.0243,0.0247,0.0239,0.0324,0.0324,0.0324,0.0324,0.0324,-0.0705,-0.0715,-0.0726,-0.0749,-0.0764,-0.0785,-0.0798,-0.077,-0.0739,-0.0625,-0.0499,-0.0281,-0.0114,0.0209,0.0307,0.0401,0.0407,0.0386,0.0383,0.0381,0.0352,0.0318,0.0407,0.0407,0.0408,0.0408,0.0408,0,-0.0736,-0.0745,-0.0756,-0.0792,-0.0826,-0.0824,-0.0822,-0.0822,-0.0791,-0.0608,-0.0472,-0.0231,-0.0013,0.0195,0.0354,0.0409,0.0388,0.0397,0.035,0.0349,0.0348,0.0314,0.0361,0.0361,0.0362,0.0362,0,0,-0.0757,-0.0784,-0.079,-0.0846,-0.0871,-0.0925,-0.0931,-0.0886,-0.0765,-0.0591,-0.0386,-0.0167,0.0067,0.0149,0.0224,0.0311,0.0302,0.0304,0.0331,0.0261,0.0259,0.0329,0.0274,0,0,0,0,0]}],[{"header":{"parameterUnit":"m.s-1","parameterCategory":2,"la1":30.2991,"la2":30.254,"lo1":-89.0895,"lo2":-89.0444,"dy":0.0017,"dx":0.0017,"nx":28,"ny":28,"refTime":"2023-10-18T03:00:00:Z","depth":"4","parameterNumber":2,"parameterNumberName":"U-component_of_CURRENTS"},"data":[0,0,0,0,0,0,0,0,0,0,0,0,0,0,0,0,0,0,0,0,0,0,0,0,0,0,0,0,0,0,0,0,0,0,0,0,0,0,0,0,0,0,0,0,0,0,0,0,0,0,0,0,0,0,0,0,0,0,-0.1056,-0.1057,0,-0.1091,-0.1091,-0.1092,-0.1115,-0.1116,-0.1116,-0.1116,-0.1162,-0.1163,-0.1164,0,0,0,0,0,0,0,0,0,0,0,0,0,-0.0999,-0.1,-0.1056,-0.1057,-0.1057,-0.1091,-0.1091,-0.1092,-0.1115,-0.1116,-0.1116,-0.1116,-0.1162,-0.1163,-0.1164,0,0,0,0,0,0,0,0,0,0,0,0,0,-0.1027,-0.1001,-0.1056,-0.1074,-0.1076,-0.1091,-0.1091,-0.1092,-0.1115,-0.1116,-0.1116,-0.1116,-0.1161,-0.1163,-0.1164,-0.1167,0,0,-0.1169,-0.1169,0,0,0,0,0,0,0,0,-0.1026,-0.103,-0.1071,-0.1072,-0.1075,-0.11,-0.1088,-0.1118,-0.1115,-0.11,-0.1116,-0.1117,-0.1142,-0.1145,-0.115,-0.1169,-0.1171,-0.1169,-0.117,-0.117,-0.1171,0,0,0,0,0,0,0,-0.1024,-0.1028,-0.107,-0.1071,-0.1074,-0.1076,-0.108,-0.1093,-0.1118,-0.1101,-0.1103,-0.1108,-0.1143,-0.1149,-0.1151,-0.1171,-0.1169,-0.117,-0.1171,-0.1172,-0.1222,-0.1223,0,0,0,0,0,0,-0.1021,-0.1026,-0.1068,-0.1071,-0.1051,-0.1076,-0.1081,-0.1091,-0.1118,-0.1123,-0.1107,-0.1109,-0.1146,-0.115,-0.1153,-0.1201,-0.117,-0.1172,-0.1173,-0.1222,-0.1223,-0.1223,0,0,0,0,0,0,-0.102,-0.1025,-0.1067,-0.1049,-0.1055,-0.1077,-0.1088,-0.1091,-0.1117,-0.1123,-0.1127,-0.1132,-0.1146,-0.1151,-0.1178,-0.1201,-0.1172,-0.1174,-0.1221,-0.1222,-0.1223,-0.127,0,0,0,0,0,0,-0.1018,-0.1024,-0.1038,-0.1049,-0.1056,-0.1088,-0.1087,-0.1092,-0.1118,-0.1121,-0.1145,-0.1148,-0.1147,-0.1176,-0.118,-0.1203,-0.1175,-0.1221,-0.1222,-0.1223,-0.1267,-0.1272,-0.1275,0,0,0,0,0,-0.1016,-0.1027,-0.1039,-0.1044,-0.1072,-0.1089,-0.1093,-0.1108,-0.112,-0.1133,-0.1148,-0.1149,-0.1184,-0.1178,-0.1182,-0.1206,-0.122,-0.1222,-0.1222,-0.1266,-0.1271,-0.1275,0,0,0,0,0,0,-0.101,-0.1031,-0.1044,-0.1062,-0.1082,-0.1093,-0.1107,-0.1122,-0.1144,-0.1153,-0.1159,-0.1163,-0.1193,-0.1191,-0.1184,-0.1221,-0.1201,-0.1203,-0.1232,-0.1237,-0.1241,-0.1233,-0.1176,0,0,0,0,0,-0.1016,-0.103,-0.1051,-0.1067,-0.1079,-0.1099,-0.1112,-0.1127,-0.1144,-0.1156,-0.117,-0.1183,-0.1197,-0.1211,-0.1218,-0.1245,-0.122,-0.126,-0.1264,-0.1267,-0.1262,-0.1252,-0.1255,-0.1226,-0.1226,-0.1226,0,0,-0.102,-0.1031,-0.1042,-0.1068,-0.1084,-0.1108,-0.1108,-0.1135,-0.1161,-0.1157,-0.1196,-0.12,-0.1205,-0.1231,-0.1244,-0.1236,-0.1259,-0.1268,-0.1272,-0.1264,-0.1253,-0.1256,-0.1259,-0.1227,-0.1227,-0.1227,0,0,-0.1024,-0.1046,-0.1059,-0.1081,-0.111,-0.1124,-0.1138,-0.1165,-0.1183,-0.1218,-0.1218,-0.1234,-0.1262,-0.1264,-0.127,-0.13,-0.1279,-0.1308,-0.1329,-0.132,-0.1323,-0.1324,-0.1284,-0.1282,-0.1314,-0.1314,-0.1314,0,-0.103,-0.105,-0.1066,-0.1088,-0.111,-0.1136,-0.1163,-0.1186,-0.1219,-0.1232,-0.1237,-0.1268,-0.1275,-0.1298,-0.1307,-0.131,-0.1291,-0.1315,-0.1326,-0.1327,-0.1328,-0.1286,-0.1283,-0.1316,-0.1316,-0.1316,-0.1315,0,-0.1041,-0.1071,-0.1081,-0.1119,-0.1145,-0.1172,-0.1207,-0.1236,-0.1262,-0.1278,-0.131,-0.1314,-0.1327,-0.1338,-0.1335,-0.135,-0.1328,-0.1331,-0.1315,-0.1334,-0.1288,-0.1284,-0.1319,-0.1319,-0.1318,-0.1317,0,0,-0.1018,-0.1077,-0.1084,-0.1112,-0.1167,-0.1187,-0.1235,-0.1273,-0.1301,-0.133,-0.1353,-0.1377,-0.1373,-0.1377,-0.1376,-0.1374,-0.1362,-0.136,-0.1358,-0.1321,-0.132,-0.1219,-0.1204,-0.1373,-0.1373,-0.1373,-0.1281,0,-0.1024,-0.1066,-0.1097,-0.1152,-0.1181,-0.1227,-0.1265,-0.1307,-0.1338,-0.1365,-0.1374,-0.1394,-0.1391,-0.1398,-0.1397,-0.1368,-0.1355,-0.1384,-0.1306,-0.1303,-0.1212,-0.1198,-0.1373,-0.1278,-0.1277,-0.1276,-0.1276,0,-0.1014,-0.1051,-0.11,-0.1171,-0.1188,-0.1226,-0.1289,-0.1326,-0.1369,-0.1391,-0.1412,-0.1418,-0.1415,-0.1414,-0.1371,-0.1391,-0.1358,-0.1335,-0.1331,-0.1215,-0.1194,-0.1258,-0.1268,-0.1269,-0.1269,-0.127,-0.127,0,-0.097,-0.1047,-0.1086,-0.1113,-0.1198,-0.1231,-0.1272,-0.133,-0.1356,-0.1399,-0.1409,-0.1422,-0.1407,-0.1388,-0.1338,-0.1358,-0.1277,-0.1296,-0.1169,-0.116,-0.1261,-0.126,-0.1263,-0.1264,-0.1264,-0.1264,-0.1264,0,-0.0941,-0.0975,-0.1073,-0.1095,-0.1151,-0.1213,-0.1261,-0.1306,-0.1354,-0.1355,-0.1408,-0.139,-0.1402,-0.1361,-0.133,-0.1215,-0.1264,-0.1154,-0.1129,-0.128,-0.1283,-0.1257,-0.1257,-0.1261,-0.1261,-0.1262,-0.1263,0,-0.0869,-0.0932,-0.0991,-0.1095,-0.1128,-0.1164,-0.1249,-0.1267,-0.1325,-0.1324,-0.1331,-0.1353,-0.1286,-0.1277,-0.1221,-0.1171,-0.11,-0.1052,-0.1185,-0.1172,-0.0992,-0.0996,-0.0895,-0.0891,-0.0887,-0.0884,-0.0882,0,-0.0833,-0.0856,-0.0979,-0.1012,-0.1059,-0.1125,-0.1155,-0.1238,-0.1245,-0.1271,-0.1242,-0.1218,-0.1209,-0.1042,-0.1055,-0.0977,-0.0972,-0.0929,-0.0988,-0.0967,-0.0954,-0.0964,-0.0972,-0.0876,-0.0875,-0.0874,-0.0873,0,-0.0773,-0.0823,-0.0871,-0.0943,-0.0991,-0.1036,-0.1079,-0.1078,-0.113,-0.1195,-0.1116,-0.1076,-0.0993,-0.0952,-0.0895,-0.085,-0.0959,-0.0891,-0.0899,-0.0954,-0.0942,-0.0935,-0.0948,-0.086,-0.0862,-0.0863,-0.0864,0,-0.073,-0.0748,-0.0813,-0.0861,-0.0914,-0.0914,-0.0962,-0.0953,-0.0975,-0.101,-0.0968,-0.0945,-0.0963,-0.088,-0.0826,-0.0773,-0.0768,-0.0752,-0.0768,-0.0783,-0.079,-0.0761,-0.0583,0,0,0,0,0,-0.0687,-0.0685,-0.0724,-0.0765,-0.0805,-0.0827,-0.0888,-0.093,-0.0978,-0.0889,-0.0932,-0.0853,-0.0771,-0.0772,-0.069,-0.0767,-0.0771,-0.0669,-0.0763,-0.0789,-0.0803,-0.0824,0,0,0,0,0,0,-0.0655,-0.0679,-0.0692,-0.0664,-0.0658,-0.0684,-0.0713,-0.0752,-0.0722,-0.0776,-0.0742,-0.0781,-0.0724,-0.0784,-0.0661,-0.0658,-0.0695,-0.067,-0.0667,-0.078,-0.0794,-0.0806,-0.0832,0,0,0,0,0]},{"header":{"parameterUnit":"m.s-1","parameterCategory":2,"la1":30.2991,"la2":30.254,"lo1":-89.0895,"lo2":-89.0444,"dy":0.0017,"dx":0.0017,"nx":28,"ny":28,"refTime":"2023-10-18T03:00:00:Z","depth":"4","parameterNumber":3,"parameterNumberName":"V-component_of_CURRENTS"},"data":[0,0,0,0,0,0,0,0,0,0,0,0,0,0,0,0,0,0,0,0,0,0,0,0,0,0,0,0,0,0,0,0,0,0,0,0,0,0,0,0,0,0,0,0,0,0,0,0,0,0,0,0,0,0,0,0,0,0,-0.043,-0.043,0,-0.042,-0.042,-0.042,-0.0432,-0.0432,-0.0433,-0.0433,-0.0376,-0.0374,-0.0372,0,0,0,0,0,0,0,0,0,0,0,0,0,-0.0425,-0.0425,-0.043,-0.043,-0.043,-0.042,-0.042,-0.042,-0.0431,-0.0432,-0.0433,-0.0433,-0.0376,-0.0374,-0.0371,0,0,0,0,0,0,0,0,0,0,0,0,0,-0.0422,-0.0425,-0.043,-0.0435,-0.0436,-0.042,-0.042,-0.042,-0.0431,-0.0432,-0.0433,-0.0434,-0.0377,-0.0374,-0.0371,-0.0337,0,0,-0.0362,-0.0361,0,0,0,0,0,0,0,0,-0.0422,-0.0422,-0.0435,-0.0435,-0.0436,-0.0429,-0.0397,-0.039,-0.0431,-0.0432,-0.0433,-0.0434,-0.0389,-0.0385,-0.0381,-0.0335,-0.0332,-0.0362,-0.036,-0.0359,-0.0358,0,0,0,0,0,0,0,-0.0422,-0.0422,-0.0426,-0.0435,-0.0435,-0.0426,-0.0427,-0.0396,-0.0405,-0.0432,-0.0433,-0.0433,-0.0389,-0.0384,-0.0379,-0.0331,-0.0362,-0.0359,-0.0357,-0.0356,-0.0258,-0.0257,0,0,0,0,0,0,-0.0426,-0.0423,-0.0426,-0.0425,-0.0431,-0.0426,-0.0427,-0.0429,-0.0406,-0.0404,-0.0432,-0.0434,-0.0389,-0.0383,-0.0377,-0.0331,-0.0359,-0.0356,-0.0354,-0.0259,-0.0258,-0.0257,0,0,0,0,0,0,-0.0426,-0.0427,-0.0426,-0.0424,-0.0424,-0.0426,-0.0428,-0.0429,-0.0431,-0.0407,-0.0404,-0.0435,-0.0389,-0.0382,-0.0351,-0.033,-0.0354,-0.0352,-0.026,-0.0259,-0.0257,-0.0242,0,0,0,0,0,0,-0.0426,-0.0427,-0.0433,-0.0425,-0.0424,-0.0423,-0.0428,-0.0428,-0.043,-0.0431,-0.0408,-0.0403,-0.0389,-0.0355,-0.0348,-0.0326,-0.0349,-0.0261,-0.0259,-0.0258,-0.0243,-0.024,-0.0238,0,0,0,0,0,-0.0426,-0.0431,-0.0433,-0.0434,-0.0432,-0.0423,-0.0422,-0.0425,-0.0429,-0.0429,-0.041,-0.0404,-0.034,-0.0352,-0.0343,-0.032,-0.0262,-0.026,-0.0258,-0.0245,-0.0241,-0.0238,0,0,0,0,0,0,-0.0431,-0.0432,-0.0435,-0.044,-0.0435,-0.0426,-0.0428,-0.0426,-0.0411,-0.0412,-0.0391,-0.0384,-0.0351,-0.0337,-0.0351,-0.0288,-0.0301,-0.0297,-0.0293,-0.029,-0.0287,-0.029,-0.0347,0,0,0,0,0,-0.0434,-0.0443,-0.0436,-0.0442,-0.0439,-0.0433,-0.0431,-0.043,-0.0416,-0.0412,-0.0394,-0.0368,-0.0334,-0.0316,-0.0291,-0.0252,-0.0235,-0.0233,-0.023,-0.0228,-0.0225,-0.0172,-0.0164,-0.0251,-0.0251,-0.0251,0,0,-0.044,-0.0442,-0.0448,-0.0445,-0.0442,-0.0431,-0.0434,-0.0431,-0.0417,-0.0404,-0.0381,-0.0359,-0.0323,-0.0284,-0.0267,-0.027,-0.0196,-0.0225,-0.0224,-0.0222,-0.0169,-0.016,-0.0153,-0.025,-0.025,-0.025,0,0,-0.0449,-0.0454,-0.0461,-0.0453,-0.0447,-0.0437,-0.0436,-0.0424,-0.0416,-0.0388,-0.0372,-0.0335,-0.0295,-0.0259,-0.0234,-0.0198,-0.0186,-0.0195,-0.0175,-0.0124,-0.0116,-0.0109,-0.0086,-0.0077,-0.0189,-0.0189,-0.0189,0,-0.0454,-0.046,-0.046,-0.0455,-0.0448,-0.0438,-0.043,-0.0413,-0.0392,-0.0375,-0.0382,-0.0305,-0.0277,-0.021,-0.02,-0.0189,-0.0172,-0.0191,-0.012,-0.0112,-0.0105,-0.0083,-0.0073,-0.0188,-0.0188,-0.0188,-0.0188,0,-0.046,-0.0463,-0.0463,-0.0453,-0.0444,-0.0437,-0.0411,-0.0397,-0.0384,-0.0362,-0.0309,-0.0268,-0.0225,-0.0203,-0.0188,-0.0121,-0.0131,-0.0126,-0.0129,-0.0095,-0.0075,-0.0065,-0.0187,-0.0187,-0.0187,-0.0188,0,0,-0.0472,-0.0469,-0.0469,-0.0467,-0.0442,-0.0436,-0.0404,-0.037,-0.0351,-0.0314,-0.0279,-0.0207,-0.0193,-0.0165,-0.0137,-0.0085,-0.0022,-0.0086,-0.0084,-0.0065,0.0072,0.0041,0.0049,-0.0005,-0.0003,-0.0002,0.0063,0,-0.0475,-0.0475,-0.0465,-0.0456,-0.0451,-0.0426,-0.04,-0.0367,-0.0334,-0.0298,-0.0235,-0.0194,-0.0174,-0.0156,-0.0098,-0.0044,0.0006,-0.0041,0.0038,0.004,0.0008,0.0061,0.0005,0.007,0.0072,0.0074,0.0075,0,-0.0479,-0.0479,-0.0478,-0.0465,-0.046,-0.045,-0.0413,-0.0389,-0.0324,-0.0298,-0.0238,-0.0199,-0.0115,-0.0111,0.0011,-0.0023,0.0025,0.0068,0.0072,0.0046,0.0029,0.0033,0.0093,0.0092,0.009,0.0089,0.0088,0,-0.0493,-0.0485,-0.049,-0.0484,-0.0463,-0.0458,-0.0445,-0.0392,-0.0371,-0.0302,-0.0278,-0.018,-0.0136,-0.005,0.0035,0.0026,0.0158,0.0157,0.0179,0.0176,0.0174,0.0166,0.025,0.025,0.025,0.0249,0.0249,0,-0.0494,-0.0497,-0.0505,-0.0505,-0.0511,-0.0486,-0.0477,-0.0447,-0.0398,-0.0367,-0.0289,-0.0242,-0.0116,-0.003,0.0042,0.0137,0.0167,0.0193,0.0202,0.0176,0.0168,0.018,0.0171,0.0252,0.0251,0.0251,0.025,0,-0.0503,-0.0507,-0.0519,-0.0518,-0.0522,-0.0529,-0.0517,-0.0505,-0.0456,-0.0414,-0.0393,-0.0275,-0.0161,-0.0047,0.0096,0.014,0.0235,0.0259,0.0211,0.0213,0.0213,0.0204,0.0294,0.0294,0.0294,0.0294,0.0293,0,-0.0504,-0.0514,-0.0542,-0.0561,-0.0566,-0.0575,-0.0581,-0.0543,-0.0525,-0.0434,-0.0412,-0.0291,-0.0208,-0.0031,0.0088,0.0227,0.0242,0.0278,0.0266,0.0224,0.0223,0.0214,0.0206,0.0293,0.0293,0.0293,0.0293,0,-0.0506,-0.0529,-0.0543,-0.059,-0.0614,-0.063,-0.0632,-0.0618,-0.0564,-0.0521,-0.0421,-0.0312,-0.0183,-0.0037,0.0072,0.0172,0.025,0.0276,0.0277,0.0266,0.0223,0.0221,0.0213,0.0292,0.0292,0.0292,0.0292,0,-0.0518,-0.0539,-0.0576,-0.0614,-0.0651,-0.0673,-0.0667,-0.0635,-0.0607,-0.0502,-0.0471,-0.0319,-0.022,-0.0065,0.0036,0.0131,0.0153,0.0166,0.0174,0.0176,0.012,0.0047,0.0083,0,0,0,0,0,-0.053,-0.0561,-0.0595,-0.0645,-0.0683,-0.0707,-0.0695,-0.0676,-0.0621,-0.0563,-0.0514,-0.0393,-0.0214,-0.0122,-0.0032,0.0023,0.016,0.013,0.0176,0.0288,0.0289,0.0241,0,0,0,0,0,0,-0.0545,-0.0581,-0.0599,-0.0663,-0.0705,-0.0746,-0.0741,-0.0703,-0.0655,-0.0583,-0.0482,-0.0407,-0.0227,-0.028,-0.0046,-0.0012,0.0023,0.0225,0.0226,0.0287,0.0288,0.0289,0.024,0,0,0,0,0]}]]